TimeEST,TemperatureF,Dew PointF,Humidity,Sea Level PressureIn,VisibilityMPH,Wind Direction,Wind SpeedMPH,Gust SpeedMPH,PrecipitationIn,Events,Conditions,WindDirDegrees,DateUTC
12:52 AM,15.1,-0.0,51,30.37,10.0,West,6.9,-,N/A,,Overcast,270,2013-01-23 05:52:00
1:52 AM,15.8,1.4,53,30.32,10.0,West,8.1,-,N/A,,Overcast,260,2013-01-23 06:52:00
2:52 AM,12.9,1.0,59,30.37,10.0,West,5.8,-,N/A,,Scattered Clouds,280,2013-01-23 07:52:00
3:52 AM,14.0,1.9,59,30.37,10.0,West,5.8,-,N/A,,Mostly Cloudy,270,2013-01-23 08:52:00
4:52 AM,12.0,1.0,61,30.36,10.0,Calm,Calm,-,N/A,,Clear,0,2013-01-23 09:52:00
5:52 AM,12.0,1.0,61,30.35,10.0,Calm,Calm,-,N/A,,Partly Cloudy,0,2013-01-23 10:52:00
6:52 AM,12.0,3.9,70,30.37,10.0,Calm,Calm,-,N/A,,Mostly Cloudy,0,2013-01-23 11:52:00
7:52 AM,14.0,3.9,64,30.36,10.0,Calm,Calm,-,N/A,,Overcast,0,2013-01-23 12:52:00
8:52 AM,14.0,3.0,62,30.36,10.0,SSW,4.6,-,N/A,,Overcast,210,2013-01-23 13:52:00
9:52 AM,16.0,1.9,54,30.37,10.0,WSW,6.9,-,N/A,,Overcast,240,2013-01-23 14:52:00
10:52 AM,17.1,3.0,54,30.36,10.0,SSW,8.1,-,N/A,,Overcast,210,2013-01-23 15:52:00
11:52 AM,18.0,1.9,50,30.33,9.0,SSW,8.1,-,0.00,Snow,Light Snow,200,2013-01-23 16:52:00
12:52 PM,19.0,3.0,50,30.30,9.0,SSW,11.5,-,0.00,Snow,Light Snow,200,2013-01-23 17:52:00
1:52 PM,19.9,3.9,50,30.25,9.0,SSW,8.1,-,0.00,Snow,Light Snow,210,2013-01-23 18:52:00
2:52 PM,21.0,3.9,48,30.23,10.0,SW,4.6,-,0.00,,Overcast,220,2013-01-23 19:52:00
3:52 PM,21.9,5.0,48,30.20,10.0,SSW,4.6,-,N/A,,Overcast,200,2013-01-23 20:52:00
4:52 PM,23.0,6.1,48,30.17,10.0,Calm,Calm,-,N/A,,Overcast,0,2013-01-23 21:52:00
5:52 PM,23.0,7.0,50,30.15,10.0,ESE,4.6,-,N/A,,Overcast,110,2013-01-23 22:52:00
6:52 PM,23.0,8.1,53,30.14,10.0,East,3.5,-,N/A,,Overcast,90,2013-01-23 23:52:00
7:52 PM,23.0,6.8,50,30.10,10.0,East,4.6,-,N/A,,Overcast,80,2013-01-24 00:52:00
8:52 PM,23.0,8.1,53,30.13,10.0,Calm,Calm,-,N/A,,Overcast,0,2013-01-24 01:52:00
9:52 PM,23.0,9.0,55,30.13,10.0,Calm,Calm,-,N/A,,Overcast,0,2013-01-24 02:52:00
10:52 PM,21.0,10.0,63,30.12,10.0,SSW,3.5,-,N/A,,Mostly Cloudy,200,2013-01-24 03:52:00
11:52 PM,21.9,10.0,60,30.12,10.0,South,3.5,-,N/A,,Overcast,190,2013-01-24 04:52:00